FW3031 Weather Reports


time (UTC)temp
F
wind
direction
speed
knots
gust
knots
rain 1hr
in
rain 24hr
in
rain mn
in
humidity
%
barometer
mb
20260831185535 83 190 2.6 7.8 0.00 0.06 0.03 62 1015.6
20260831185034 83 190 3.5 7.8 0.00 0.06 0.03 62 1015.7
20260831184600 83 190 1.7 6.1 0.00 0.05 0.03 62 1014.3
20260831184543 83 190 1.7 6.1 0.00 0.06 0.03 62 1015.9
20260831184033 83 190 1.7 6.1 0.00 0.06 0.03 62 1016.0
20260831183533 82 190 2.6 7.0 0.00 0.06 0.03 63 1016.1
20260831183109 83 190 3.5 7.8 0.00 0.05 0.03 61 1014.7
20260831183033 82 190 1.7 7.8 0.00 0.06 0.03 61 1016.2
20260831182533 83 190 4.3 7.8 0.00 0.06 0.03 61 1016.2
20260831182032 83 190 0.0 5.2 0.00 0.06 0.03 61 1016.3
20260831181606 83 190 0.0 5.2 0.00 0.05 0.03 60 1014.9
20260831181533 83 190 0.9 3.5 0.00 0.06 0.03 61 1016.3
20260831181031 83 190 0.0 5.2 0.00 0.06 0.03 61 1016.3
20260831180531 83 190 0.9 5.2 0.00 0.06 0.03 61 1016.4
20260831180113 83 0 0.0 5.2 0.00 0.05 0.03 61 1015.2
20260831180032 83 190 0.0 2.6 0.00 0.06 0.03 61 1016.4
20260831175531 83 190 0.9 5.2 0.00 0.06 0.03 61 1016.5
20260831175031 83 190 1.7 5.2 0.00 0.06 0.03 60 1016.6
20260831174603 83 0 0.0 2.6 0.00 0.05 0.03 61 1015.2
20260831174547 83 190 0.0 2.6 0.00 0.06 0.03 61 1016.6
20260831174034 83 190 0.9 2.6 0.00 0.06 0.03 60 1016.6
20260831173530 83 190 0.9 5.2 0.00 0.06 0.03 61 1016.7
20260831173108 83 190 0.9 4.3 0.00 0.05 0.03 60 1015.3
20260831173029 82 190 0.0 4.3 0.00 0.06 0.03 61 1016.7
20260831172527 82 190 0.0 4.3 0.00 0.06 0.03 63 1016.7
20260831172026 82 190 1.7 4.3 0.00 0.06 0.03 63 1016.8
20260831171605 81 0 0.0 4.3 0.00 0.05 0.03 63 1015.5
20260831171539 81 190 0.0 4.3 0.00 0.06 0.03 64 1016.8
20260831171024 81 190 0.9 4.3 0.00 0.06 0.03 65 1016.8
20260831170524 81 190 0.9 4.3 0.00 0.06 0.03 67 1016.8
20260831170103 80 0 0.9 3.5 0.00 0.05 0.03 67 1015.6
20260831170054 80 190 0.9 3.5 0.00 0.06 0.03 67 1016.9
20260831165522 80 190 0.0 3.5 0.00 0.06 0.03 68 1017.0
20260831165020 80 190 0.0 4.3 0.00 0.06 0.03 68 1017.0
20260831164602 80 190 1.7 5.2 0.00 0.05 0.03 67 1015.8
20260831164524 80 190 0.0 4.3 0.00 0.06 0.03 68 1017.1
20260831164022 79 190 2.6 5.2 0.00 0.06 0.03 69 1017.1
20260831163520 79 190 1.7 5.2 0.00 0.06 0.03 69 1017.2
20260831163103 80 190 1.7 4.3 0.00 0.05 0.03 69 1015.8
20260831163019 80 190 1.7 5.2 0.00 0.06 0.03 70 1017.2
20260831162521 80 190 1.7 4.3 0.00 0.06 0.03 67 1017.2
20260831162018 79 190 0.0 3.5 0.00 0.06 0.03 68 1017.3
20260831161611 79 0 0.9 3.5 0.00 0.05 0.03 68 1015.9
20260831161518 79 190 0.0 3.5 0.00 0.06 0.03 69 1017.3
20260831161017 79 190 0.9 3.5 0.00 0.06 0.03 68 1017.4
20260831160517 79 190 0.0 1.7 0.00 0.06 0.03 68 1017.4
20260831160109 79 0 0.0 0.0 0.00 0.05 0.03 67 1016.0
20260831160028 79 190 0.0 0.0 0.00 0.06 0.03 70 1017.5
20260831155517 78 190 0.0 0.0 0.00 0.06 0.03 69 1017.6
20260831155014 78 190 0.0 0.0 0.00 0.06 0.03 70 1017.8
20260831154631 78 0 0.0 2.6 0.00 0.05 0.03 68 1016.2
20260831154513 78 190 0.0 2.6 0.00 0.06 0.03 69 1017.8
20260831154013 78 190 0.9 2.6 0.00 0.06 0.03 69 1017.8
20260831153510 77 190 0.0 3.5 0.00 0.06 0.03 69 1017.8
20260831153111 77 0 1.7 3.5 0.00 0.05 0.03 70 1016.3
20260831153011 77 190 0.9 3.5 0.00 0.06 0.03 69 1017.8
20260831152509 77 190 0.0 1.7 0.00 0.06 0.03 71 1017.8
20260831152011 77 190 0.0 2.6 0.00 0.06 0.03 74 1017.9
20260831151601 76 0 0.9 2.6 0.00 0.05 0.03 74 1016.2
20260831151510 76 190 0.0 2.6 0.00 0.06 0.03 74 1018.0
20260831151007 76 190 0.0 2.6 0.00 0.06 0.03 75 1018.0
20260831150505 75 190 0.9 2.6 0.00 0.06 0.03 74 1018.0
20260831150113 75 0 0.0 2.6 0.00 0.05 0.03 75 1016.2
20260831150004 75 190 0.0 2.6 0.00 0.06 0.03 75 1018.1
20260831145502 75 190 0.0 0.0 0.00 0.06 0.03 76 1018.0
20260831145003 75 190 0.0 1.7 0.00 0.06 0.03 76 1018.0
20260831144607 74 0 0.0 1.7 0.00 0.05 0.03 77 1016.1
20260831144600 74 190 0.0 1.7 0.00 0.06 0.03 77 1018.0
20260831144059 74 190 0.0 0.0 0.00 0.06 0.03 79 1017.9
20260831143558 74 190 0.0 0.0 0.00 0.06 0.03 80 1017.8
20260831143101 73 0 0.0 0.0 0.00 0.05 0.03 81 1016.0
20260831143058 73 190 0.0 0.0 0.00 0.06 0.03 81 1017.8
20260831142601 73 190 0.0 1.7 0.00 0.06 0.03 81 1017.9
20260831142057 72 190 0.0 1.7 0.00 0.06 0.03 83 1017.8
20260831141610 72 0 0.0 0.0 0.00 0.05 0.03 83 1016.0
20260831141559 72 190 0.0 0.9 0.00 0.06 0.03 84 1017.8
20260831141057 71 190 0.0 0.0 0.00 0.06 0.03 86 1017.8
20260831140556 71 190 0.0 0.0 0.00 0.06 0.03 87 1017.7
20260831140106 71 0 0.0 0.0 0.00 0.05 0.03 88 1015.8
20260831140057 71 190 0.0 0.0 0.00 0.06 0.03 88 1017.7
20260831135556 70 190 0.0 0.0 0.00 0.06 0.03 89 1017.7
20260831135056 69 190 0.0 1.7 0.00 0.06 0.03 90 1017.6
20260831134607 69 0 0.0 1.7 0.00 0.05 0.03 89 1015.7
20260831134556 69 190 0.0 1.7 0.00 0.06 0.03 90 1017.7
20260831134056 69 190 0.0 1.7 0.00 0.06 0.03 90 1017.7
20260831133553 69 190 0.0 1.7 0.00 0.06 0.03 90 1017.5
20260831133103 69 190 0.0 2.6 0.00 0.05 0.03 90 1015.6
20260831133056 68 190 0.0 1.7 0.00 0.06 0.03 91 1017.5
20260831132556 68 190 0.0 2.6 0.00 0.06 0.03 92 1017.3
20260831132057 68 190 0.9 2.6 0.00 0.06 0.03 91 1017.3
20260831131610 68 0 0.9 2.6 0.00 0.05 0.03 91 1015.3
20260831131552 68 190 0.0 2.6 0.00 0.06 0.03 91 1017.1
20260831131050 68 190 0.0 2.6 0.00 0.06 0.03 91 1017.1
20260831130553 68 190 0.0 0.9 0.00 0.06 0.03 91 1016.9
20260831130109 68 0 0.0 0.0 0.00 0.05 0.03 90 1015.0
20260831130050 68 190 0.0 0.0 0.00 0.06 0.03 91 1016.8
20260831125549 68 190 0.0 0.0 0.00 0.06 0.03 91 1016.8
20260831125049 68 190 0.0 0.0 0.00 0.06 0.03 91 1016.8
20260831124603 68 0 0.0 0.0 0.00 0.05 0.03 91 1015.0
20260831124548 68 190 0.0 0.0 0.00 0.06 0.03 91 1016.8
20260831124048 68 190 0.0 0.0 0.00 0.06 0.03 91 1016.8
20260831123546 68 190 0.0 0.9 0.00 0.06 0.03 92 1016.9
20260831123102 69 0 0.0 0.9 0.00 0.05 0.03 91 1015.0
20260831123047 69 190 0.0 0.9 0.00 0.06 0.03 92 1016.8
20260831122545 69 190 0.0 0.0 0.00 0.06 0.03 91 1016.7
20260831122046 69 190 0.0 0.0 0.00 0.06 0.03 91 1016.8
20260831121608 69 0 0.0 0.0 0.00 0.05 0.03 90 1015.0
20260831121545 69 190 0.0 0.0 0.00 0.06 0.03 91 1016.8
20260831121049 69 190 0.0 0.0 0.00 0.06 0.03 91 1016.7
20260831120543 69 190 0.0 0.0 0.00 0.06 0.03 90 1016.6
20260831120149 69 0 0.0 0.0 0.00 0.05 0.03 90 1014.7
20260831120043 69 190 0.0 0.0 0.00 0.06 0.03 91 1016.5
20260831115541 69 190 0.0 0.0 0.00 0.06 0.03 90 1016.4
20260831115041 69 190 0.0 0.0 0.00 0.06 0.03 90 1016.4
20260831114610 69 0 0.0 0.0 0.00 0.05 0.03 89 1014.5
20260831114541 69 190 0.0 0.0 0.00 0.06 0.03 90 1016.3
20260831114041 69 190 0.0 0.0 0.00 0.06 0.03 89 1016.3
20260831113541 70 190 0.0 0.0 0.00 0.06 0.03 89 1016.2
20260831113103 70 0 0.0 0.0 0.00 0.05 0.03 89 1014.5
20260831113043 70 190 0.0 0.0 0.00 0.06 0.03 89 1016.2
20260831112540 70 190 0.0 0.0 0.00 0.06 0.03 89 1016.2
20260831112039 70 190 0.0 0.0 0.00 0.06 0.03 89 1016.1
20260831111606 70 0 0.0 0.0 0.00 0.05 0.03 89 1014.5
20260831111540 70 190 0.0 0.0 0.00 0.06 0.03 89 1016.1
20260831111039 70 190 0.0 0.0 0.00 0.06 0.03 90 1016.1
20260831110542 70 190 0.0 0.0 0.00 0.06 0.03 89 1016.1
20260831110111 70 0 0.0 0.0 0.00 0.05 0.03 88 1014.5
20260831110039 70 190 0.0 0.0 0.00 0.06 0.03 89 1016.1
20260831105537 70 190 0.0 0.0 0.00 0.06 0.03 89 1016.2
20260831105039 70 190 0.0 0.9 0.00 0.06 0.03 89 1016.2
20260831104607 70 0 0.0 0.9 0.00 0.05 0.03 89 1014.5
20260831104543 70 190 0.0 0.9 0.00 0.06 0.03 90 1016.2
20260831104036 70 190 0.0 0.9 0.00 0.06 0.03 90 1016.2
20260831103539 70 190 0.0 0.0 0.00 0.06 0.03 88 1016.1
20260831103122 70 0 0.0 0.0 0.00 0.05 0.03 87 1014.3
20260831103055 70 190 0.0 0.0 0.00 0.06 0.03 87 1016.0
20260831102536 70 190 0.0 0.0 0.00 0.06 0.03 86 1016.0
20260831102036 70 190 0.0 0.0 0.00 0.06 0.03 86 1016.0
20260831101611 70 0 0.0 0.0 0.00 0.05 0.03 86 1014.3
20260831101539 70 190 0.0 0.0 0.00 0.06 0.03 86 1016.1
20260831101037 70 190 0.0 0.0 0.00 0.06 0.03 87 1016.2
20260831100537 70 190 0.0 0.0 0.00 0.06 0.03 87 1016.3
20260831100120 70 0 0.0 0.0 0.00 0.05 0.03 87 1014.7
20260831100039 70 190 0.0 0.0 0.00 0.06 0.03 88 1016.4
20260831095535 70 190 0.0 0.0 0.00 0.06 0.03 89 1016.5
20260831095035 70 190 0.0 0.0 0.00 0.06 0.03 89 1016.5
20260831094610 70 0 0.0 0.0 0.00 0.05 0.03 89 1014.9
20260831094534 70 190 0.0 0.0 0.00 0.06 0.03 89 1016.5
20260831094034 70 190 0.0 0.0 0.00 0.06 0.03 89 1016.5
20260831093533 70 190 0.0 0.0 0.00 0.06 0.03 88 1016.5
20260831093111 70 0 0.0 0.0 0.00 0.05 0.03 89 1014.9
20260831093034 70 190 0.0 0.0 0.00 0.06 0.03 89 1016.6
20260831092532 70 190 0.0 0.0 0.00 0.06 0.03 88 1016.5
20260831092032 70 190 0.0 0.0 0.00 0.06 0.03 89 1016.5
20260831091611 70 0 0.0 0.0 0.00 0.05 0.03 88 1014.8
20260831091532 70 190 0.0 0.0 0.00 0.06 0.03 89 1016.4
20260831091032 70 190 0.0 0.0 0.00 0.06 0.03 89 1016.4
20260831090532 70 190 0.0 1.7 0.00 0.06 0.03 88 1016.3
20260831090113 70 0 0.0 1.7 0.00 0.05 0.03 86 1014.7
20260831090032 70 190 0.0 1.7 0.00 0.06 0.03 87 1016.3
20260831085532 70 190 0.0 1.7 0.00 0.06 0.03 86 1016.3
20260831085034 70 190 0.0 1.7 0.00 0.06 0.03 88 1016.3
20260831084608 71 0 0.0 0.0 0.00 0.05 0.03 87 1014.5
20260831084532 70 190 0.0 0.0 0.00 0.06 0.03 88 1016.2
20260831084030 70 190 0.0 0.0 0.00 0.06 0.03 89 1016.1
20260831083530 70 190 0.0 0.0 0.00 0.06 0.03 88 1016.0
20260831083106 70 0 0.0 0.0 0.00 0.05 0.03 88 1014.4
20260831083031 70 190 0.0 0.0 0.00 0.06 0.03 89 1016.0
20260831082530 70 190 0.0 0.0 0.00 0.06 0.03 88 1015.9
20260831082030 70 190 0.0 0.0 0.00 0.06 0.03 88 1016.0
20260831081610 70 0 0.0 0.0 0.00 0.05 0.03 88 1014.5
20260831081530 70 190 0.0 0.0 0.00 0.06 0.03 89 1016.1
20260831081032 70 190 0.0 0.0 0.00 0.06 0.03 88 1016.0
20260831080530 70 190 0.0 0.9 0.00 0.06 0.03 88 1015.9
20260831080107 70 0 0.0 0.9 0.00 0.05 0.03 87 1014.4
20260831080047 70 190 0.0 0.9 0.00 0.06 0.03 87 1016.0
20260831075529 70 190 0.0 0.9 0.00 0.06 0.03 88 1016.0
20260831075029 70 190 0.0 0.9 0.00 0.06 0.03 87 1015.9
20260831074608 70 0 0.0 0.9 0.00 0.05 0.03 86 1014.5
20260831074528 70 190 0.0 0.9 0.00 0.06 0.03 87 1016.0
20260831074028 71 190 0.0 0.9 0.00 0.06 0.03 87 1016.1
20260831073526 71 190 0.0 0.0 0.00 0.06 0.03 86 1016.1
20260831073111 71 0 0.0 0.9 0.00 0.05 0.03 85 1014.4
20260831073031 71 190 0.0 0.0 0.00 0.06 0.03 86 1016.0
20260831072524 71 190 0.0 0.9 0.00 0.06 0.03 83 1015.9
20260831072030 71 190 0.0 1.7 0.01 0.06 0.03 86 1015.8
20260831071618 71 190 0.0 1.7 0.00 0.05 0.03 87 1014.4
20260831071523 71 190 0.0 1.7 0.01 0.06 0.03 89 1015.9
20260831071023 71 190 0.0 0.0 0.02 0.06 0.03 89 1016.0
20260831070524 71 190 0.0 0.0 0.02 0.06 0.03 89 1016.0
20260831070111 71 0 0.0 0.0 0.02 0.05 0.03 87 1014.5
20260831070023 71 190 0.0 0.0 0.02 0.06 0.03 88 1016.2
20260831065521 71 190 0.0 0.0 0.05 0.06 0.03 87 1016.2
20260831065022 71 190 0.0 0.0 0.06 0.06 0.03 87 1016.1
20260831064604 72 0 0.0 0.0 0.05 0.05 0.03 87 1014.4
20260831064521 72 190 0.0 0.0 0.06 0.06 0.03 87 1016.1
20260831064020 71 190 0.0 0.9 0.06 0.06 0.03 87 1016.0
20260831063520 71 190 0.0 1.7 0.06 0.06 0.03 87 1016.1
20260831063104 71 190 0.0 0.9 0.05 0.05 0.03 86 1014.5
20260831063021 71 190 0.0 0.9 0.06 0.06 0.03 86 1016.1
20260831062519 72 190 0.0 0.9 0.06 0.06 0.03 86 1016.2
20260831062020 72 190 0.0 0.0 0.05 0.05 0.02 85 1016.2
20260831061609 72 0 0.0 2.6 0.04 0.04 0.02 84 1014.5
20260831061516 72 190 0.0 1.7 0.05 0.05 0.02 84 1016.2
20260831061015 72 190 0.0 3.5 0.04 0.04 0.02 84 1016.3
20260831060514 73 190 0.9 5.2 0.04 0.04 0.02 82 1016.4
20260831060113 74 190 2.6 5.2 0.03 0.03 0.00 80 1014.9
20260831060012 74 190 1.7 5.2 0.02 0.02 0.00 79 1016.6
20260831055511 75 190 1.7 5.2 0.01 0.01 0.01 75 1016.6
20260831055011 76 190 0.9 6.1 0.00 0.00 0.00 74 1016.7
20260831054604 78 0 0.9 6.1 0.00 0.00 0.00 69 1015.1
20260831054511 78 190 0.9 6.1 0.00 0.00 0.00 69 1016.6
20260831054011 79 190 0.9 6.1 0.00 0.00 0.00 65 1016.6
20260831053511 79 190 0.9 4.3 0.00 0.00 0.00 63 1016.4
20260831053151 79 190 0.0 3.5 0.00 0.00 0.00 63 1014.7
20260831053014 79 190 0.0 3.5 0.00 0.00 0.00 63 1016.4
20260831052510 79 190 0.0 3.5 0.00 0.00 0.00 63 1016.3
20260831052010 79 190 0.9 3.5 0.00 0.00 0.00 62 1016.3
20260831051607 79 190 0.9 3.5 0.00 0.00 0.00 61 1014.7
20260831051512 79 190 0.9 3.5 0.00 0.00 0.00 62 1016.4
20260831051009 79 190 0.0 1.7 0.00 0.00 0.00 62 1016.5
20260831050509 79 190 0.0 1.7 0.00 0.00 0.00 62 1016.3
20260831050127 79 0 0.0 4.3 0.00 0.00 0.00 62 1014.5
20260831050012 79 190 0.0 2.6 0.00 0.00 0.00 63 1016.2
20260831045509 79 190 0.9 4.3 0.00 0.00 0.00 62 1016.1
20260831045008 79 190 0.0 4.3 0.00 0.00 0.00 62 1016.1
20260831044610 79 0 0.0 0.0 0.00 0.00 0.00 63 1014.4
20260831044513 79 190 0.0 0.0 0.00 0.00 0.00 63 1016.1
20260831044009 78 190 0.0 0.0 0.00 0.00 0.00 65 1016.1
20260831043511 78 190 0.0 1.7 0.00 0.00 0.00 65 1016.0
20260831043108 79 0 0.0 1.7 0.00 0.00 0.00 64 1014.1
20260831043007 79 190 0.0 1.7 0.00 0.00 0.00 65 1015.9
20260831042511 79 190 0.0 0.0 0.00 0.00 0.00 65 1015.9
20260831042008 79 190 0.0 1.7 0.00 0.00 0.00 65 1015.8
20260831041619 79 0 0.0 2.6 0.00 0.00 0.00 64 1014.0
20260831041510 79 190 0.0 1.7 0.00 0.00 0.00 64 1015.8
20260831041007 79 190 0.0 2.6 0.00 0.00 0.00 64 1015.7
20260831040508 79 190 0.9 2.6 0.00 0.00 0.00 63 1015.5
20260831040008 80 190 0.0 2.6 0.00 0.00 0.00 62 1015.5
20260831035507 80 190 0.0 0.0 0.00 0.00 0.00 62 1015.5
20260831035007 80 190 0.0 0.0 0.00 0.00 0.00 62 1015.3
20260831034612 80 0 0.0 0.0 0.00 0.00 0.00 62 1013.6
20260831034505 80 190 0.0 0.0 0.00 0.00 0.00 62 1015.3
20260831034006 80 190 0.0 0.0 0.00 0.00 0.00 61 1015.3
20260831033505 80 190 0.0 0.0 0.00 0.00 0.00 61 1015.3
20260831033112 81 0 0.0 0.0 0.00 0.00 0.00 60 1013.4
20260831033008 81 190 0.0 0.0 0.00 0.00 0.00 60 1015.2
20260831032506 81 190 0.0 0.0 0.00 0.00 0.00 60 1015.2
20260831032007 81 190 0.0 0.0 0.00 0.00 0.00 59 1015.1
20260831031621 81 0 0.0 0.0 0.00 0.00 0.00 59 1013.2
20260831031506 81 190 0.0 0.0 0.00 0.00 0.00 59 1014.9
20260831031004 81 190 0.0 0.0 0.00 0.00 0.00 59 1014.9
20260831030504 82 190 0.0 0.0 0.00 0.00 0.00 58 1014.8
20260831030103 82 0 0.0 2.6 0.00 0.00 0.00 57 1012.9
20260831030004 82 190 0.0 2.6 0.00 0.00 0.00 58 1014.7
20260831025504 82 190 0.0 2.6 0.00 0.00 0.00 58 1014.6
20260831025004 82 190 0.0 1.7 0.00 0.00 0.00 58 1014.5
20260831024611 82 190 0.0 2.6 0.00 0.00 0.00 57 1012.6
20260831024503 82 190 0.0 2.6 0.00 0.00 0.00 58 1014.4
20260831024004 82 190 0.0 2.6 0.00 0.00 0.00 57 1014.2
20260831023502 82 190 0.0 4.3 0.00 0.00 0.00 57 1014.2
20260831023105 82 0 1.7 4.3 0.00 0.00 0.00 56 1012.4
20260831023002 82 190 2.6 4.3 0.00 0.00 0.00 57 1014.1
20260831022503 82 190 1.7 4.3 0.00 0.00 0.00 57 1014.0
20260831022002 82 190 0.9 3.5 0.00 0.00 0.00 56 1014.0
20260831021609 83 190 1.7 3.5 0.00 0.00 0.00 55 1012.3
20260831021502 83 190 0.9 3.5 0.00 0.00 0.00 55 1014.0
20260831021003 83 190 0.0 2.6 0.00 0.00 0.00 54 1014.0
20260831020502 83 190 0.0 2.6 0.00 0.00 0.00 54 1013.8
20260831020113 83 0 0.9 3.5 0.00 0.00 0.00 53 1011.9
20260831020002 83 190 0.0 3.5 0.00 0.00 0.00 53 1013.6
20260831015503 83 190 0.9 3.5 0.00 0.00 0.00 54 1013.4
20260831015001 83 190 0.0 0.0 0.00 0.00 0.00 55 1013.2
20260831014602 83 0 0.0 0.0 0.00 0.00 0.00 54 1011.3
20260831014501 83 190 0.0 0.0 0.00 0.00 0.00 55 1013.1
20260831014100 83 190 0.0 0.0 0.00 0.00 0.00 55 1013.0
20260831014000 83 190 0.0 0.0 0.00 0.00 0.00 55 1013.0
20260831013600 83 190 0.0 0.9 0.00 0.00 0.00 54 1013.0
20260831013106 83 0 0.0 0.9 0.00 0.00 0.00 53 1010.9
20260831013101 83 190 0.0 0.9 0.00 0.00 0.00 54 1012.8
20260831012601 83 190 0.0 0.0 0.00 0.00 0.00 53 1012.6
20260831012100 83 190 0.0 0.0 0.00 0.00 0.00 52 1012.4
20260831011608 83 190 0.0 0.0 0.00 0.00 0.00 51 1012.3
20260831011601 83 0 0.0 0.0 0.00 0.00 0.00 50 1010.3
20260831011059 84 190 0.0 0.0 0.00 0.00 0.00 49 1012.1
20260831010600 84 190 0.0 0.0 0.00 0.00 0.00 48 1012.0
20260831010107 85 0 0.0 0.0 0.00 0.00 0.00 45 1010.1
20260831010001 85 190 0.0 0.0 0.00 0.00 0.00 45 1011.9
20260831005601 85 190 0.0 0.9 0.00 0.00 0.00 45 1011.8
20260831005058 85 190 0.0 3.5 0.00 0.00 0.00 44 1011.7
20260831004606 86 0 0.0 4.3 0.00 0.00 0.00 43 1009.8
20260831004558 86 190 0.0 3.5 0.00 0.00 0.00 44 1011.5
20260831004058 86 190 0.0 4.3 0.00 0.00 0.00 42 1011.4
20260831003559 86 190 0.9 6.1 0.00 0.00 0.00 41 1011.3
20260831003103 87 190 2.6 7.0 0.00 0.00 0.00 40 1009.5
20260831003059 87 190 2.6 7.0 0.00 0.00 0.00 41 1011.2
20260831002557 87 190 3.5 7.0 0.00 0.00 0.00 40 1011.1
20260831002059 88 190 1.7 5.2 0.00 0.00 0.00 40 1011.1
20260831001600 88 190 1.7 9.6 0.00 0.00 0.00 40 1009.3
20260831001557 88 190 0.9 9.6 0.00 0.00 0.00 40 1011.1
20260831001057 88 190 5.2 9.6 0.00 0.00 0.00 39 1011.0
20260831000557 88 190 1.7 7.8 0.00 0.00 0.00 40 1011.0
20260831000114 89 190 3.5 7.8 0.00 0.00 0.00 39 1009.2
20260830235556 89 190 3.5 7.8 0.00 0.00 0.00 39 1011.0
20260830235059 89 190 1.7 7.8 0.00 0.00 0.00 39 1010.8
20260830234604 89 190 2.6 7.8 0.00 0.00 0.00 38 1009.1
20260830234601 89 190 0.9 7.8 0.00 0.00 0.00 39 1010.8
20260830234055 90 190 3.5 7.8 0.00 0.00 0.00 38 1010.8
20260830233555 90 190 2.6 8.7 0.00 0.00 0.00 38 1010.7
20260830233103 90 190 3.5 8.7 0.00 0.00 0.00 36 1009.1
20260830233055 90 190 2.6 8.7 0.00 0.00 0.00 37 1010.8
20260830232554 91 190 2.6 6.1 0.00 0.00 0.00 36 1010.8
20260830232057 91 190 1.7 5.2 0.00 0.00 0.00 35 1010.6
20260830231610 91 190 1.7 6.1 0.00 0.00 0.00 35 1008.9
20260830231555 91 190 1.7 5.2 0.00 0.00 0.00 35 1010.6
20260830231054 91 190 2.6 6.1 0.00 0.00 0.00 34 1010.6
20260830230554 92 190 1.7 4.3 0.00 0.00 0.00 35 1010.5
20260830230107 92 0 0.9 7.0 0.00 0.00 0.00 34 1008.8
20260830230100 92 190 0.9 5.2 0.00 0.00 0.00 34 1010.5
20260830225554 92 190 0.9 7.0 0.00 0.00 0.00 34 1010.4
20260830225056 92 190 2.6 7.0 0.00 0.00 0.00 34 1010.4
20260830224601 92 190 0.0 5.2 0.00 0.00 0.00 33 1008.7
20260830224553 92 190 0.9 5.2 0.00 0.00 0.00 34 1010.3
20260830224053 92 190 1.7 5.2 0.00 0.00 0.00 34 1010.4
20260830223552 92 190 1.7 7.0 0.00 0.00 0.00 33 1010.5
20260830223102 93 190 3.5 7.0 0.00 0.00 0.00 34 1010.6
20260830222554 93 190 1.7 7.0 0.00 0.00 0.00 33 1010.6
20260830222051 93 190 2.6 6.1 0.00 0.00 0.00 34 1010.6
20260830221607 93 190 3.5 7.0 0.00 0.00 0.00 33 1010.7
20260830221559 93 190 2.6 8.7 0.00 0.00 0.00 33 1008.9
20260830221050 93 190 0.9 8.7 0.00 0.00 0.00 34 1010.8
20260830220551 93 190 2.6 8.7 0.00 0.00 0.00 33 1010.8
20260830220113 93 190 1.7 4.3 0.00 0.00 0.00 33 1009.2
20260830220050 93 190 0.9 4.3 0.00 0.00 0.00 33 1010.9
20260830215549 94 190 0.9 5.2 0.00 0.00 0.00 33 1011.0
20260830215049 94 190 0.9 5.2 0.00 0.00 0.00 32 1011.0
20260830214601 94 0 0.0 5.2 0.00 0.00 0.00 32 1009.3
20260830214547 94 190 0.0 4.3 0.00 0.00 0.00 32 1011.1
20260830214050 94 190 0.9 5.2 0.00 0.00 0.00 32 1011.2
20260830213545 94 190 1.7 5.2 0.00 0.00 0.00 32 1011.3
20260830213103 94 190 2.6 5.2 0.00 0.00 0.00 30 1009.6
20260830213046 94 190 2.6 5.2 0.00 0.00 0.00 31 1011.4
20260830212544 94 190 0.9 4.3 0.00 0.00 0.00 30 1011.5
20260830212043 94 190 1.7 4.3 0.00 0.00 0.00 31 1011.5
20260830211623 93 190 0.9 7.0 0.00 0.00 0.00 31 1009.7
20260830211542 93 190 0.9 7.0 0.00 0.00 0.00 32 1011.6
20260830211041 93 190 2.6 7.0 0.00 0.00 0.00 31 1011.8
20260830210541 93 190 1.7 7.0 0.00 0.00 0.00 32 1011.9
20260830210112 93 0 1.7 7.0 0.00 0.00 0.00 32 1010.0
20260830210039 93 190 1.7 7.0 0.00 0.00 0.00 32 1012.0
20260830205537 92 190 1.7 7.0 0.00 0.00 0.00 32 1012.1
20260830205035 92 190 1.7 5.2 0.00 0.00 0.00 33 1012.3
20260830204604 92 190 1.7 6.1 0.00 0.00 0.00 34 1010.3
20260830204541 92 190 1.7 6.1 0.00 0.00 0.00 35 1012.3
20260830204036 92 190 1.7 6.1 0.00 0.00 0.00 36 1012.4
20260830203532 92 190 2.6 6.1 0.00 0.00 0.00 35 1012.6
20260830203107 92 190 0.9 6.1 0.00 0.00 0.00 34 1010.6
20260830203036 91 190 0.9 6.1 0.00 0.00 0.00 35 1012.6
20260830202530 92 190 2.6 7.0 0.00 0.00 0.00 34 1012.7
20260830202030 92 190 1.7 7.0 0.00 0.00 0.00 34 1012.8
20260830201607 92 190 1.7 8.7 0.00 0.00 0.00 34 1010.8
20260830201527 91 190 0.9 7.0 0.00 0.00 0.00 35 1012.9
20260830201029 91 190 1.7 8.7 0.00 0.00 0.00 36 1013.0
20260830200526 90 190 1.7 8.7 0.00 0.00 0.00 36 1013.1
20260830200047 90 190 2.6 6.1 0.00 0.00 0.00 36 1013.2
20260830195525 90 190 0.0 7.8 0.00 0.00 0.00 36 1013.3
20260830195024 91 190 3.5 7.8 0.00 0.00 0.00 37 1013.5
20260830194609 91 190 1.7 5.2 0.00 0.00 0.00 36 1011.5
20260830194523 91 190 2.6 4.3 0.00 0.00 0.00 36 1013.6
20260830194023 91 190 0.9 5.2 0.00 0.00 0.00 36 1013.6
20260830193519 91 190 1.7 7.0 0.00 0.00 0.00 36 1013.8
20260830193106 90 0 2.6 7.0 0.00 0.00 0.00 37 1011.7
20260830193020 90 190 1.7 7.0 0.00 0.00 0.00 37 1014.0
20260830192517 90 190 1.7 5.2 0.00 0.00 0.00 37 1014.1
20260830192018 90 190 2.6 8.7 0.00 0.00 0.00 35 1014.3
20260830191602 90 190 3.5 8.7 0.00 0.00 0.00 36 1012.0
20260830191516 90 190 3.5 8.7 0.00 0.00 0.00 37 1014.3
20260830191017 91 190 1.7 3.5 0.00 0.00 0.00 35 1014.5
20260830190514 90 190 0.0 5.2 0.00 0.00 0.00 33 1014.6
20260830190122 90 190 2.6 5.2 0.00 0.00 0.00 32 1012.2
20260830190014 90 190 1.7 5.2 0.00 0.00 0.00 33 1014.8